OBJECT BS (43822 NORAD) Tracking and Keplerian Element Data

This shows tracking and keplerian element data for the satellite.

Feedback or suggestion? Click here.




ElementValue
Catalog43822
NameOBJECT BS
Epoch Orbit546
Epoch Day52.18759967
Epoch Year2019
RAAN125.5522
Inclination97.7573
Eccentricity0.0015295
Argument of Perigee1.3456
Mean Anonmoly358.7803
Mean Motion14.94981599
Decay Rate-7.4E-07
L11 43822U 18099BS 19052.18759967 -.00000074 00000-0 -14590-5 0 9992
L22 43822 97.7573 125.5522 0015295 1.3456 358.7803 14.94981599 5460

Live tracking and technical data element details for OBJECT BS (NORAD 43822). OBJECT BS can be tracked NOW for your location showing map with azimuth and elevation plus other details from your city location.

Track the satellite on the map from your city or location and see movement details for azimuth, elevation, latitude, longitude, range, height, and movement on the map or in text.







IsCatalogInMostPopularTable: catalog: 43822, numindb: 3
Update: records affected: 1



GetName: 43822 OBJECT BS

Hit Count: updated at: Sat, 23 Feb 2019 16:31:40 GMT